Hill City, KS

10:24 PM CST on February 27, 2017 (GMT -0600)
Hill City Municipal

Weather History for KHLC - October, 2010

Change the Weather History Date:

Friday, October 29, 2010

  Actual Average Record
Temperature  
Mean Temperature 56 °F 49 °F  
Max Temperature 74 °F 63 °F 89 °F (1937)
Min Temperature 37 °F 35 °F 8 °F (1913)
Degree Days  
Heating Degree Days 10    
Growing Degree Days 5 (Base 50)    
Moisture  
Dew Point 25 °F    
Average Humidity 38    
Maximum Humidity 53    
Minimum Humidity 17    
Precipitation  
Precipitation 0.00 in 0.04 in 0.37 in (2002)
Month to date precipitation 0.29 1.46  
Year to date precipitation 16.19 21.22  
Sea Level Pressure  
Sea Level Pressure 30.10 in    
Wind  
Wind Speed 6 mph (SSW)    
Max Wind Speed 17 mph    
Max Gust Speed 24 mph    
Visibility 10 miles    
Events      
T = Trace of Precipitation, MM = Missing Value Source: NWS Daily Summary

Daily Weather History Graph

Daily Weather History Graph

Search for Another Location

Airport or City:

Trip Planner

Search our weather history database for the weather conditions in past years. The results will help you decide how hot, cold, wet, or windy it might be!

Date:

Astronomy

Oct. 29, 2010 Rise Set
Actual Time 8:04 AM CDT 6:41 PM CDT
Civil Twilight 7:36 AM CDT 7:09 PM CDT
Nautical Twilight 7:04 AM CDT 7:40 PM CDT
Astronomical Twilight 6:33 AM CDT 8:11 PM CDT
Moon No Moon Rise 2:05 PM CDT (10/29)
Length of Visible Light 11h 32m
Length of Day
10h 37m
Waning Gibbous, 59% of the Moon is Illuminated
Oct 29
Waning Gibbous
Oct 30
Last Quarter
Nov 5
New
Nov 13
First Quarter
Nov 21
Full

Hourly Weather History & Observations

Time (CDT) Temp. Windchill Dew Point Humidity Pressure Visibility Wind Dir Wind Speed Gust Speed Precip Events Conditions
12:53 AM 43.0 °F 41.3 °F 19.9 °F 40% 30.34 in 10.0 mi SSW 3.5 mph - N/A   Clear
1:53 AM 41.0 °F 39.0 °F 21.0 °F 45% 30.32 in 10.0 mi South 3.5 mph - N/A   Clear
2:53 AM 42.1 °F - 21.0 °F 43% 30.31 in 10.0 mi Calm Calm - N/A   Clear
3:53 AM 37.0 °F - 21.0 °F 52% 30.29 in 10.0 mi Calm Calm - N/A   Clear
4:53 AM 42.1 °F 37.1 °F 23.0 °F 47% 30.23 in 10.0 mi South 8.1 mph - N/A   Clear
5:53 AM 44.1 °F 41.5 °F 23.0 °F 43% 30.22 in 10.0 mi SSW 4.6 mph - N/A   Clear
6:53 AM 42.1 °F 39.2 °F 24.1 °F 49% 30.22 in 10.0 mi SSW 4.6 mph - N/A   Clear
7:53 AM 42.1 °F 38.4 °F 24.1 °F 49% 30.21 in 10.0 mi SSW 5.8 mph - N/A   Clear
8:53 AM 43.0 °F 38.2 °F 26.1 °F 51% 30.21 in 10.0 mi SW 8.1 mph - N/A   Clear
9:53 AM 48.0 °F - 26.1 °F 42% 30.20 in 10.0 mi SW 17.3 mph 24.2 mph N/A   Clear
10:53 AM 52.0 °F - 26.1 °F 37% 30.16 in 10.0 mi SSW 17.3 mph 23.0 mph N/A   Clear
11:53 AM 59.0 °F - 27.0 °F 29% 30.12 in 10.0 mi SSW 13.8 mph - N/A   Clear
12:53 PM 64.9 °F - 28.0 °F 25% 30.08 in 10.0 mi SSW 12.7 mph 20.7 mph N/A   Clear
1:53 PM 68.0 °F - 28.0 °F 22% 30.05 in 10.0 mi South 11.5 mph - N/A   Clear
2:53 PM 70.0 °F - 27.0 °F 20% 30.00 in 10.0 mi SSW 15.0 mph 21.9 mph N/A   Clear
3:53 PM 72.0 °F - 27.0 °F 19% 29.98 in 10.0 mi SW 11.5 mph 19.6 mph N/A   Clear
4:53 PM 73.9 °F - 26.1 °F 17% 29.94 in 10.0 mi SW 10.4 mph 19.6 mph N/A   Clear
5:53 PM 72.0 °F - 26.1 °F 18% 29.91 in 10.0 mi South 8.1 mph - N/A   Clear
6:53 PM 66.0 °F - 27.0 °F 23% 29.91 in 10.0 mi South 3.5 mph - N/A   Clear
7:53 PM 50.0 °F - 26.1 °F 39% 29.95 in 10.0 mi Calm Calm - N/A   Clear
8:53 PM 43.0 °F - 26.1 °F 51% 29.96 in 10.0 mi Calm Calm - N/A   Clear
9:53 PM 43.0 °F - 27.0 °F 53% 29.94 in 10.0 mi Calm Calm - N/A   Clear
10:53 PM 48.0 °F - 28.0 °F 46% 29.91 in 10.0 mi WSW 5.8 mph - N/A   Clear
11:53 PM 46.0 °F - 28.0 °F 50% 29.90 in 10.0 mi Calm Calm - N/A   Clear